Location: Kuffner-Sternwarte
(48.2130°N, 16.2960°E)
Time: 06:33:26
(UTC+02:00)

ISS - Visible Passes

Search period start: 25 July 2024 00:00
Search period end: 04 August 2024 00:00
Orbit: 409 x 423 km, 51.6° (Epoch: 24 July)

Date Brightness Start Highest point End Pass type
(mag) Time Alt. Az. Time Alt. Az. Time Alt. Az.
25 Jul -2.1 22:15:16 10° W 22:17:53 22° SW 22:19:15 17° S visible
26 Jul -2.6 21:26:21 10° W 21:29:23 33° SW 21:32:22 10° SSE visible
28 Jul -1.4 21:26:22 10° W 21:28:22 15° SW 21:30:22 10° S visible
